Honolulu, HI

6:19 AM HST on April 30, 2017 (GMT -1000)
Honolulu International

Weather History for PHNL - January, 2012

Change the Weather History Date:

Monday, January 30, 2012

  Actual Average Record
Temperature  
Mean Temperature 76 °F 73 °F  
Max Temperature 81 °F 80 °F 84 °F (1959)
Min Temperature 70 °F 66 °F 56 °F (1972)
Degree Days  
Heating Degree Days 0 0  
Month to date heating degree days 0 0  
Since 1 July heating degree days 0 0  
Cooling Degree Days 11 8  
Month to date cooling degree days 289 242  
Year to date cooling degree days 289 242  
Growing Degree Days 26 (Base 50)    
Moisture  
Dew Point 63 °F    
Average Humidity 71    
Maximum Humidity 90    
Minimum Humidity 51    
Precipitation  
Precipitation T in 0.06 in 1.22 in (1975)
Month to date precipitation 0.56 2.24  
Year to date precipitation 0.56 2.24  
Snow  
Snow 0.00 in - - ()
Month to date snowfall 0.0  
Since 1 July snowfall 0.0  
Snow Depth 0.00 in    
Sea Level Pressure  
Sea Level Pressure 30.08 in    
Wind  
Wind Speed 12 mph (NE)    
Max Wind Speed 22 mph    
Max Gust Speed 29 mph    
Visibility 10 miles    
Events      
T = Trace of Precipitation, MM = Missing Value Source: NWS Daily Summary

Daily Weather History Graph

Daily Weather History Graph

Search for Another Location

Airport or City:

Trip Planner

Search our weather history database for the weather conditions in past years. The results will help you decide how hot, cold, wet, or windy it might be!

Date:

Astronomy

Jan. 30, 2012 Rise Set
Actual Time 7:09 AM HST 6:20 PM HST
Civil Twilight 6:46 AM HST 6:43 PM HST
Nautical Twilight 6:19 AM HST 7:10 PM HST
Astronomical Twilight 5:53 AM HST 7:36 PM HST
Moon 11:43 AM HST 12:13 AM HST
Length of Visible Light 11h 57m
Length of Day
11h 10m
Waxing Crescent, 48% of the Moon is Illuminated
Jan 30
Waxing Crescent
Jan 30
First Quarter
Feb 7
Full
Feb 14
Last Quarter
Feb 21
New

Hourly Weather History & Observations

Time (HST) Temp. Heat Index Dew Point Humidity Pressure Visibility Wind Dir Wind Speed Gust Speed Precip Events Conditions
12:53 AM 70.0 °F - 66.9 °F 90% 30.14 in 10.0 mi ENE 10.4 mph - 0.00 in   Mostly Cloudy
1:53 AM 71.1 °F - 66.0 °F 84% 30.12 in 10.0 mi ENE 5.8 mph - N/A   Mostly Cloudy
2:53 AM 71.1 °F - 63.0 °F 75% 30.09 in 10.0 mi East 11.5 mph - N/A   Scattered Clouds
3:53 AM 71.1 °F - 63.0 °F 75% 30.08 in 10.0 mi ENE 16.1 mph 21.9 mph N/A   Scattered Clouds
4:53 AM 71.1 °F - 62.1 °F 73% 30.08 in 10.0 mi North 4.6 mph - N/A   Scattered Clouds
5:53 AM 72.0 °F - 64.0 °F 76% 30.09 in 10.0 mi NE 9.2 mph 17.3 mph N/A   Scattered Clouds
6:53 AM 72.0 °F - 64.0 °F 76% 30.11 in 10.0 mi ENE 10.4 mph - N/A   Scattered Clouds
7:53 AM 70.0 °F - 66.0 °F 87% 30.13 in 10.0 mi NE 12.7 mph - 0.00 in   Mostly Cloudy
8:53 AM 73.0 °F - 63.0 °F 71% 30.13 in 10.0 mi ENE 8.1 mph - N/A   Mostly Cloudy
9:53 AM 75.9 °F - 64.0 °F 67% 30.13 in 10.0 mi ENE 13.8 mph 20.7 mph N/A   Mostly Cloudy
10:53 AM 78.1 °F - 63.0 °F 60% 30.12 in 10.0 mi ENE 16.1 mph - N/A   Scattered Clouds
11:53 AM 80.1 °F 81.5 °F 63.0 °F 56% 30.10 in 10.0 mi NE 19.6 mph 23.0 mph N/A   Scattered Clouds
12:53 PM 80.1 °F 81.1 °F 61.0 °F 52% 30.07 in 10.0 mi ENE 13.8 mph 24.2 mph N/A   Scattered Clouds
1:53 PM 81.0 °F 81.9 °F 62.1 °F 52% 30.04 in 10.0 mi NE 18.4 mph 28.8 mph N/A   Scattered Clouds
2:53 PM 80.1 °F 81.1 °F 61.0 °F 52% 30.02 in 10.0 mi NE 16.1 mph 26.5 mph N/A   Scattered Clouds
3:53 PM 79.0 °F - 62.1 °F 56% 30.02 in 10.0 mi NE 13.8 mph 21.9 mph N/A   Scattered Clouds
4:53 PM 77.0 °F - 63.0 °F 62% 30.02 in 10.0 mi NE 13.8 mph 24.2 mph N/A   Scattered Clouds
5:53 PM 75.0 °F - 62.1 °F 64% 30.03 in 10.0 mi NE 13.8 mph - N/A   Scattered Clouds
6:53 PM 73.9 °F - 62.1 °F 66% 30.04 in 10.0 mi NE 11.5 mph - N/A   Scattered Clouds
7:53 PM 73.9 °F - 64.0 °F 71% 30.06 in 10.0 mi ENE 10.4 mph 19.6 mph N/A   Scattered Clouds
8:53 PM 73.9 °F - 63.0 °F 68% 30.07 in 10.0 mi ENE 9.2 mph - N/A   Scattered Clouds
9:53 PM 73.9 °F - 64.0 °F 71% 30.07 in 10.0 mi ENE 10.4 mph - N/A   Scattered Clouds
10:53 PM 73.0 °F - 64.0 °F 73% 30.07 in 10.0 mi ENE 9.2 mph - N/A   Scattered Clouds
11:53 PM 73.0 °F - 64.0 °F 73% 30.06 in 10.0 mi ENE 9.2 mph - N/A   Mostly Cloudy